This demonstration page uses our WeatherBlox Daily Observations layout. Learn more.

Left ArrowRight Arrow

41.86663, -103.66717

Hourly Observations for November 29, 2019

Temp ( °F °C ) Dew Point ( °F °C ) Humidity (%) Winds ( mph kmh ) Pressure ( in mb ) Visibility ( mi km ) Precip ( " mm )
12:53 am 00:53 Cloudy with Mist and Fog 31 -0.6 31 -0.6 100 100 E 12 19 29.98 1015 4 6 0.00 0.00
1:53 am 01:53 Cloudy with Mist and Fog 31 -0.6 31 -0.6 100 100 E 13 20 29.97 1015 4 6 0.00 0.00
2:53 am 02:53 Cloudy with Mist and Fog 31 -0.6 30 -1.1 96 96 ESE 15 24 29.96 1014 4 6 0.00 0.00
3:53 am 03:53 Cloudy with Mist and Fog 31 -0.6 31 -0.6 100 100 ESE 13 20 29.95 1014 5 8 0.00 0.00
4:53 am 04:53 Cloudy with Mist and Fog 31 -0.6 30 -1.1 96 96 ESE 14 22 29.93 1014 5 8 0.00 0.00
5:53 am 05:53 Cloudy with Mist and Fog 30 -1.1 30 -1.1 100 100 ESE 15 24 29.92 1013 4 6 0.00 0.00
6:53 am 06:53 Cloudy with Mist and Fog 30 -1.1 30 -1.1 100 100 ESE 16 26 29.91 1013 4 6 0.00 0.00
7:26 am 07:26 Cloudy with Mist and Fog 30 -1 30 -1 100 100 ESE 17 28 29.96 1014 2 3 0.00 0.00
7:50 am 07:50 Cloudy with Mist and Fog 30 -1 30 -1 100 100 SE 14 22 29.97 1015 3 5 0.00 0.00
7:53 am 07:53 Cloudy with Mist and Fog 30 -1.1 30 -1.1 100 100 ESE 13 20 29.91 1013 3 4 0.00 0.00
8:08 am 08:08 Cloudy with Mist and Fog 30 -1 30 -1 100 100 ESE 13 20 29.96 1014 3 5 0.00 0.00
8:25 am 08:25 Cloudy with Mist and Fog 30 -1.1 30 -1.1 100 100 ESE 14 22 29.96 1014 3 4 0.00 0.00
8:41 am 08:41 Cloudy with Mist and Fog 30 -1.1 30 -1.1 100 100 ESE 12 19 29.95 1014 3 5 0.00 0.00
8:53 am 08:53 Cloudy with Mist and Fog 30 -1.1 30 -1.1 100 100 ESE 13 20 29.88 1012 3 5 0.00 0.00
9:05 am 09:05 Cloudy with Mist and Fog 30 -1.1 30 -1.1 100 100 E 15 24 29.94 1014 2 3 0.00 0.00
9:15 am 09:15 Cloudy with Mist and Fog 30 -1.1 30 -1.1 100 100 ESE 14 22 29.94 1014 2 3 0.00 0.00
9:46 am 09:46 Cloudy with Mist and Fog 30 -1 30 -1 100 100 ESE 16 26 29.92 1013 2 3 0.00 0.00
9:53 am 09:53 Cloudy with Mist and Fog 31 -0.6 30 -1.1 96 96 ESE 17 28 29.85 1011 3 4 0.00 0.00
10:11 am 10:11 Cloudy with Mist and Fog 31 -0.6 31 -0.6 100 100 ESE 13 20 29.90 1013 3 5 0.00 0.00
10:38 am 10:38 Cloudy with Mist and Fog 30 -1 30 -1 100 100 ESE 13 20 29.90 1012 2 3 0.00 0.00
10:53 am 10:53 Cloudy with Mist and Fog 31 -0.6 31 -0.6 100 100 ESE 14 22 29.83 1010 3 5 0.00 0.00
11:53 am 11:53 Cloudy with Mist and Fog 31 -0.6 31 -0.6 100 100 ESE 15 24 29.78 1008 6 10 0.00 0.00
12:31 pm 12:31 Cloudy with Mist and Fog 31 -0.6 31 -0.6 100 100 ESE 16 26 29.79 1009 2 3 0.00 0.00
12:53 pm 12:53 Cloudy with Mist and Fog 31 -0.6 31 -0.6 100 100 E 13 20 29.72 1006 1 2 0.00 0.00
1:03 pm 13:03 Cloudy with Mist and Fog 31 -0.6 31 -0.6 100 100 ESE 15 24 29.77 1008 1 1 0.00 0.00
1:53 pm 13:53 Mostly Cloudy with Freezing Fog 31 -0.6 31 -0.6 100 100 ESE 16 26 29.69 1005 1 1 0.00 0.00
2:39 pm 14:39 Cloudy with Mist and Fog 31 -0.6 31 -0.6 100 100 ESE 18 30 29.73 1007 1 2 0.00 0.00
2:53 pm 14:53 Cloudy with Mist and Fog 31 -0.6 31 -0.6 100 100 ESE 17 28 29.67 1005 1 2 0.00 0.00
3:44 pm 15:44 Cloudy with Mist and Fog 31 -0.6 31 -0.6 100 100 ESE 17 28 29.68 1005 1 1 0.00 0.00
3:53 pm 15:53 Cloudy with Freezing Fog 31 -0.6 31 -0.6 100 100 E 17 28 29.61 1003 1 1 0.00 0.00
4:09 pm 16:09 Mostly Cloudy with Fog 32 0 31 -0.6 96 96 ESE 21 33 29.66 1004 0 0 0.00 0.00
4:23 pm 16:23 Mostly Cloudy with Mist and Fog 32 0 31 -0.6 96 96 ESE 26 43 29.66 1004 1 1 0.00 0.00
4:31 pm 16:31 Cloudy with Mist and Fog 32 0 32 0 100 100 ESE 20 31 29.65 1004 2 2 0.00 0.00
4:51 pm 16:51 Cloudy with Mist and Fog 32 0 32 0 100 100 ESE 21 33 29.64 1004 2 3 0.00 0.00
4:53 pm 16:53 Cloudy with Mist and Fog 32 0 31 -0.6 96 96 ESE 23 37 29.58 1002 2 3 0.00 0.00
5:09 pm 17:09 Cloudy with Mist and Fog 32 0 31 -0.6 96 96 ESE 21 33 29.64 1004 3 5 0.00 0.00
5:31 pm 17:31 Cloudy with Mist and Fog 32 0 32 0 100 100 ESE 15 24 29.64 1004 2 3 0.00 0.00
5:53 pm 17:53 Cloudy with Mist and Fog 32 0 32 0 100 100 E 17 28 29.57 1001 3 4 0.00 0.00
6:00 pm 18:00 Cloudy with Mist and Fog 32 0 30 -1 93 93 ESE 21 33 29.63 1003 4 6 0.00 0.00
6:20 pm 18:20 Cloudy with Mist and Fog 32 0 30 -1 93 93 ESE 20 31 29.61 1003 3 4 0.00 0.00
6:53 pm 18:53 Cloudy with Mist and Fog 32 0 32 0 100 100 E 17 28 29.55 1001 3 4 0.00 0.00
7:37 pm 19:37 Cloudy with Mist and Fog 32 0 32 0 100 100 E 15 24 29.57 1001 3 5 0.00 0.00
7:50 pm 19:50 Cloudy with Light Freezing Rain 32 0 32 0 100 100 E 12 19 29.56 1001 3 4 0.00 0.00
7:53 pm 19:53 Cloudy with Light Freezing Rain 32 0 32 0 100 100 E 13 20 29.50 999 3 4 0.00 0.00
8:00 pm 20:00 Cloudy with Light Snow 32 0 32 0 100 100 E 12 19 29.55 1001 2 3 0.00 0.00
8:31 pm 20:31 Cloudy with Light Snow 34 1 32 0 93 93 ESE 14 22 29.53 1000 3 4 0.00 0.00
8:33 pm 20:33 Cloudy with Light Rain 34 1 32 0 93 93 ESE 13 20 29.52 1000 3 5 0.00 0.00
8:40 pm 20:40 Cloudy with Light Freezing Rain 33 0.6 33 0.6 100 100 E 9 15 29.52 1000 3 4 0.04 1.02
8:46 pm 20:46 Cloudy with Light Snow 33 0.6 32 0 96 96 E 10 17 29.52 1000 2 3 0.05 1.27
8:53 pm 20:53 Cloudy with Light Snow 32 0 32 0 100 100 E 12 19 29.47 998 2 2 0.06 1.52
9:12 pm 21:12 Cloudy with Snow 32 0 32 0 100 100 E 9 15 29.52 1000 1 1 0.00 0.00
9:19 pm 21:19 Mostly Cloudy with Light Snow 32 0 32 0 100 100 E 8 13 29.51 999 1 1 0.04 1.02
9:53 pm 21:53 Mostly Cloudy with Snow 32 0 32 0 100 100 ENE 5 7 29.42 996 1 1 0.10 2.54
10:38 pm 22:38 Mostly Cloudy with Heavy Snow 32 0 32 0 100 100 N 6 9 29.46 998 0 0 0.00 0.00
10:48 pm 22:48 Mostly Cloudy with Heavy Snow 32 0 32 0 100 100 NNE 6 9 29.45 997 0 0 0.16 4.06
10:53 pm 22:53 Mostly Cloudy with Heavy Snow 32 0 31 -0.6 96 96 N 7 11 29.39 995 0 0 0.18 4.57
10:57 pm 22:57 Mostly Cloudy with Snow 32 0 31 -0.6 96 96 N 8 13 29.45 997 1 1 0.01 0.25
11:45 pm 23:45 Mostly Cloudy with Light Snow 30 -1 30 -1 100 100 NNW 10 17 29.45 997 1 2 0.00 0.00
11:53 pm 23:53 Mostly Cloudy with Light Snow 31 -0.6 31 -0.6 100 100 NNW 8 13 29.38 995 1 1 0.11 2.79

Powered by AerisWeather